Temp
84 86 86 87 86 86 86 85 85 86 85 87 87 87 87 88 89 89 89 88 88 88 88 87 87 87 89 87 87 86 85 85 86 85 87 88 89 91 92 91 90 88
86 87 86 87 85 84 84 86 86 86 86 86 88 87 87 88 90 90 89 88 88 89 88 89 88 87 88 88 87 86 84 86 85 91 87 88 87 89 90 91 91 89
88 88 88 88 87 87 89 87 87 88 87 87 89 87 88 90 89 88 88 88 88 90 88 88 87 87 88 88 87 87 86 85 85 89 84 84 87 87 88 92 92 92
87 88 89 91 89 89 89 88 87 87 88 87 88 90 90 92 89 89 88 88 88 88 88 88 88 89 88 88 86 86 87 85 87 85 84 85 87 88 88 88 90 91
89 88 89 90 90 89 88 88 89 89 89 88 89 89 88 87 88 89 88 88 87 89 88 88 89 89 88 87 87 86 87 86 87 86 85 85 86 87 89 89 88 89
89 88 87 88 87 87 89 88 89 91 89 91 91 92 90 90 89 90 88 89 90 89 90 90 89 90 90 88 87 86 88 88 88 86 86 85 87 89 92 88 86 87
90 90 89 89 90 89 89 89 90 89 91 91 91 90 91 90 89 89 89 90 90 89 90 88 87 88 88 87 86 86 86 87 87 86 86 86 86 87 90 90 87 87
91 91 91 89 91 90 89 90 92 90 90 89 90 91 91 92 91 92 90 91 91 90 89 90 88 87 90 89 86 86 87 90 89 85 85 85 86 86 87 90 88 86
91 91 91 91 91 90 91 93 93 92 92 90 91 92 91 91 92 93 89 90 90 89 88 89 88 89 89 88 87 87 86 88 91 88 86 87 87 86 87 88 87 87
90 91 92 92 93 92 92 92 93 93 92 92 93 93 92 90 92 93 90 88 89 88 87 87 87 89 89 89 87 87 87 87 87 86 87 87 88 88 89 88 88 87
91 92 92 92 92 94 93 93 93 93 92 93 93 91 94 93 90 92 90 89 92 89 89 88 88 89 89 91 91 89 89 89 88 87 88 88 88 88 90 88 88 88
88 91 93 92 93 94 95 95 95 92 93 93 94 93 91 92 93 92 91 89 89 90 89 88 89 89 88 89 91 91 90 90 89 89 89 89 90 90 89 89 89 88
89 92 92 93 93 94 95 95 95 95 93 92 93 92 92 91 93 91 90 90 89 91 91 89 89 90 87 88 89 90 89 88 90 90 89 89 91 91 93 92 92 92
88 88 88 90 92 90 92 96 96 95 94 92 92 91 92 93 92 91 91 91 91 91 91 90 89 89 88 88 88 89 90 89 89 89 90 90 91 91 93 93 93 94
86 87 88 89 90 89 90 91 93 93 93 92 91 92 94 93 96 90 85 91 91 89 89 91 89 90 90 89 88 88 88 90 89 89 90 89 89 92 92 91 94 95
86 87 87 88 88 90 88 89 91 91 94 93 92 93 91 91 91 93 94 91 88 88 90 92 92 92 89 88 89 88 88 90 91 88 88 87 88 88 91 93 94 95
86 86 87 87 88 87 88 88 88 88 88 89 91 91 90 89 90 92 93 94 93 92 92 92 94 88 80 79 79 84 91 88 88 88 88 88 89 86 86 89 92 92
85 86 86 86 86 86 86 87 87 87 86 87 89 91 89 91 91 90 90 92 94 94 94 94 80 67 65 68 72 75 82 87 91 90 91 89 88 88 88 89 90 92
80 83 84 85 85 86 86 85 85 85 86 86 87 88 90 88 87 90 90 90 91 87 86 79 77 64 64 66 66 66 68 81 90 90 90 90 89 88 88 87 87 88
77 81 83 83 84 84 84 84 84 83 84 85 85 85 85 83 84 84 82 80 80 80 79 78 74 65 62 64 64 65 67 74 86 88 88 88 87 88 90 88 87 87
80 78 76 82 83 83 82 82 81 80 81 80 78 76 75 75 79 80 79 78 78 79 80 78 72 59 62 62 62 63 65 75 84 87 87 87 88 88 86 87 84 85
78 78 77 76 77 81 82 81 80 80 78 74 74 74 73 76 77 78 77 78 77 77 76 73 69 59 59 60 59 62 68 82 84 84 84 85 86 87 86 83 84 82
80 78 77 77 78 77 77 77 76 76 74 75 74 74 74 74 74 76 76 76 76 75 72 70 68 61 57 57 58 58 71 81 82 83 83 84 84 83 82 83 81 81
78 78 74 72 74 76 77 76 75 75 74 74 72 72 72 72 72 72 73 73 74 73 71 69 67 62 57 56 56 57 68 78 79 81 81 80 80 81 81 80 80 80
77 76 75 74 74 73 75 74 73 73 74 73 72 72 72 72 72 72 72 72 72 72 73 70 69 66 57 55 56 56 64 74 77 78 78 77 79 79 81 79 79 77
75 75 74 74 73 73 73 73 73 73 72 71 72 72 72 72 73 72 71 71 71 70 70 70 69 68 62 54 54 56 57 68 76 77 77 78 78 77 77 78 78 76
MSLP
1017.78 1017.82 1018.02 1018.06 1018.22 1018.26 1018.46 1018.74 1018.78 1018.94 1018.94 1018.86 1019.14 1019.10 1019.02 1018.86 1018.66 1018.74 1018.94 1019.10 1019.26 1019.34 1019.42 1019.54 1019.58 1019.74 1019.74 1019.82 1019.94 1020.18 1020.34 1020.42 1020.38 1020.30 1020.34 1020.26 1020.38 1020.34 1020.38 1020.22 1020.18 1020.18
1017.66 1017.62 1017.78 1017.78 1018.02 1018.14 1018.26 1018.22 1018.50 1018.58 1018.70 1018.70 1018.62 1018.74 1018.70 1018.74 1018.70 1018.70 1018.98 1019.14 1019.26 1019.34 1019.34 1019.50 1019.58 1019.70 1019.74 1019.82 1019.94 1020.14 1020.30 1020.26 1020.46 1019.90 1020.26 1020.38 1020.34 1020.22 1020.26 1020.10 1020.02 1019.82
1017.34 1017.54 1017.70 1017.90 1018.10 1018.14 1018.10 1018.18 1018.22 1018.22 1018.46 1018.54 1018.38 1018.54 1018.74 1018.54 1018.78 1018.82 1018.90 1019.14 1019.34 1019.30 1019.42 1019.46 1019.58 1019.62 1019.66 1019.66 1019.78 1019.98 1020.18 1020.30 1020.38 1020.02 1020.30 1020.54 1020.30 1020.38 1020.22 1019.90 1019.82 1019.74
1017.18 1017.26 1017.42 1017.46 1017.70 1017.86 1017.94 1018.10 1018.22 1018.26 1018.26 1018.58 1018.54 1018.42 1018.38 1018.34 1018.58 1018.86 1019.02 1019.06 1019.26 1019.30 1019.38 1019.46 1019.54 1019.58 1019.66 1019.70 1019.86 1020.06 1020.06 1020.18 1020.02 1020.06 1020.46 1020.34 1020.22 1020.18 1020.18 1020.02 1019.94 1019.90
1017.10 1017.26 1017.14 1017.26 1017.34 1017.46 1017.74 1018.02 1018.14 1018.18 1018.22 1018.26 1018.34 1018.26 1018.38 1018.54 1018.62 1018.86 1019.02 1019.14 1019.18 1019.34 1019.42 1019.54 1019.50 1019.58 1019.62 1019.74 1019.86 1020.14 1020.10 1020.26 1019.98 1020.06 1020.34 1020.46 1020.22 1020.22 1020.10 1019.94 1020.14 1020.26
1016.86 1016.94 1017.14 1017.22 1017.50 1017.62 1017.78 1018.02 1017.98 1017.94 1018.14 1018.18 1018.10 1018.02 1018.22 1018.38 1018.58 1018.66 1018.90 1019.10 1019.14 1019.30 1019.38 1019.42 1019.58 1019.54 1019.54 1019.78 1019.90 1020.10 1020.02 1020.14 1020.02 1020.06 1020.34 1020.46 1020.30 1019.90 1019.82 1019.94 1020.26 1020.42
1016.82 1016.90 1017.14 1017.10 1017.30 1017.38 1017.58 1017.70 1017.70 1017.82 1017.86 1017.86 1017.82 1018.10 1018.02 1018.42 1018.54 1018.66 1018.70 1018.82 1018.94 1019.10 1019.22 1019.34 1019.50 1019.54 1019.54 1019.66 1019.98 1020.10 1020.02 1020.02 1019.98 1020.10 1020.38 1020.34 1020.26 1020.22 1019.82 1019.86 1020.06 1020.26
1016.50 1016.62 1016.70 1016.98 1017.14 1017.30 1017.54 1017.46 1017.38 1017.54 1017.62 1017.74 1018.02 1017.90 1017.82 1018.10 1018.22 1018.30 1018.54 1018.62 1018.74 1018.90 1018.94 1019.10 1019.26 1019.38 1019.42 1019.54 1019.90 1020.06 1020.14 1019.90 1020.10 1020.34 1020.46 1020.38 1020.18 1020.30 1020.14 1019.94 1019.94 1020.22
1016.26 1016.50 1016.62 1016.74 1017.10 1017.26 1017.38 1017.14 1017.26 1017.26 1017.26 1017.74 1017.86 1017.78 1017.74 1017.82 1017.94 1018.02 1018.30 1018.42 1018.58 1018.62 1018.86 1019.10 1019.22 1019.30 1019.30 1019.46 1019.70 1019.82 1020.02 1019.90 1019.58 1019.90 1020.22 1020.34 1020.38 1020.34 1020.18 1019.94 1020.10 1020.10
1016.34 1016.26 1016.46 1016.66 1016.78 1016.94 1017.10 1017.02 1017.02 1017.10 1017.14 1017.34 1017.50 1017.58 1017.78 1017.82 1017.70 1017.78 1018.10 1018.34 1018.58 1018.78 1018.94 1019.06 1019.22 1019.22 1019.22 1019.26 1019.50 1019.62 1019.78 1019.86 1019.82 1019.90 1019.98 1020.02 1020.02 1020.02 1019.94 1019.94 1019.98 1020.06
1016.22 1016.18 1016.34 1016.54 1016.66 1016.54 1016.78 1016.86 1016.94 1017.02 1017.10 1017.22 1017.34 1017.58 1017.42 1017.50 1017.78 1017.66 1017.98 1018.30 1018.46 1018.66 1018.74 1018.90 1019.02 1019.02 1019.10 1019.10 1019.10 1019.22 1019.46 1019.66 1019.62 1019.66 1019.74 1019.78 1019.74 1019.70 1019.62 1019.66 1019.74 1019.82
1016.14 1016.14 1016.22 1016.38 1016.46 1016.46 1016.42 1016.38 1016.54 1016.98 1017.02 1017.14 1017.10 1017.38 1017.62 1017.58 1017.62 1017.74 1017.98 1018.30 1018.34 1018.34 1018.54 1018.62 1018.62 1018.74 1018.86 1018.94 1018.90 1018.94 1019.10 1019.22 1019.30 1019.42 1019.42 1019.50 1019.50 1019.46 1019.46 1019.46 1019.58 1019.62
1016.14 1016.10 1016.06 1016.06 1016.18 1016.18 1016.02 1016.14 1016.34 1016.54 1016.82 1017.14 1017.06 1017.30 1017.62 1017.78 1017.66 1017.78 1017.90 1018.18 1018.26 1018.14 1018.34 1018.46 1018.54 1018.58 1018.74 1018.78 1018.82 1018.86 1019.06 1019.26 1019.26 1019.26 1019.30 1019.30 1019.22 1019.14 1019.02 1018.98 1019.06 1019.06
1016.02 1015.94 1015.94 1015.82 1015.82 1015.98 1015.98 1015.90 1016.02 1016.22 1016.38 1016.70 1016.90 1017.30 1017.46 1017.46 1017.74 1017.82 1017.90 1017.94 1018.06 1018.14 1018.06 1018.18 1018.46 1018.58 1018.62 1018.66 1018.74 1018.86 1018.94 1019.14 1019.14 1019.22 1019.18 1019.10 1018.98 1018.86 1018.78 1018.70 1018.62 1018.54
1015.86 1015.86 1015.78 1015.78 1015.82 1015.98 1016.10 1016.10 1016.06 1016.10 1016.18 1016.34 1016.70 1017.02 1017.06 1017.18 1016.86 1017.70 1018.74 1018.02 1017.94 1018.06 1018.14 1018.18 1018.62 1018.58 1018.50 1018.58 1018.78 1018.86 1018.86 1018.98 1018.94 1019.06 1019.02 1019.14 1019.06 1018.90 1018.66 1018.62 1018.50 1018.38
1015.82 1015.90 1015.94 1015.90 1016.02 1016.14 1016.22 1016.14 1016.18 1016.18 1016.14 1016.34 1016.54 1016.74 1016.82 1016.78 1016.90 1016.94 1017.26 1017.74 1018.18 1018.30 1018.26 1018.10 1018.26 1018.26 1018.26 1018.22 1018.30 1018.54 1018.66 1018.74 1018.74 1018.70 1018.82 1019.02 1019.10 1019.10 1018.98 1018.70 1018.50 1018.26
1015.86 1016.02 1016.02 1016.18 1016.18 1016.26 1016.34 1016.42 1016.46 1016.50 1016.58 1016.54 1016.58 1016.70 1016.86 1016.90 1016.94 1017.14 1017.22 1017.18 1017.50 1017.82 1018.02 1018.02 1017.90 1018.26 1018.18 1017.86 1018.02 1018.10 1018.22 1018.54 1018.74 1018.78 1018.70 1018.82 1018.94 1019.10 1019.22 1019.02 1018.70 1018.42
1016.10 1016.10 1016.22 1016.30 1016.34 1016.50 1016.54 1016.58 1016.66 1016.82 1016.94 1016.94 1016.90 1016.94 1017.02 1017.02 1017.26 1017.38 1017.34 1017.22 1017.14 1017.26 1017.42 1017.54 1018.62 1019.14 1018.62 1018.66 1018.46 1018.26 1018.18 1018.22 1018.30 1018.54 1018.66 1018.74 1018.82 1018.94 1018.94 1018.94 1018.86 1018.62
1016.42 1016.42 1016.42 1016.46 1016.54 1016.58 1016.62 1016.74 1016.94 1017.06 1017.22 1017.30 1017.38 1017.18 1017.18 1017.50 1017.62 1017.58 1017.54 1017.46 1017.50 1017.90 1018.26 1018.90 1019.30 1019.78 1019.50 1019.18 1019.10 1018.94 1018.78 1018.50 1018.30 1018.42 1018.66 1018.78 1018.74 1018.70 1018.66 1018.62 1018.62 1018.62
1017.14 1016.86 1016.70 1016.62 1016.62 1016.82 1016.94 1017.14 1017.22 1017.46 1017.34 1017.30 1017.54 1017.66 1017.90 1018.30 1018.30 1018.34 1018.38 1018.50 1018.58 1018.70 1018.90 1019.10 1019.50 1019.82 1019.78 1019.46 1019.30 1019.18 1019.02 1018.86 1018.66 1018.62 1018.70 1018.74 1018.82 1018.78 1018.70 1018.62 1018.54 1018.70
1016.94 1017.50 1018.10 1017.18 1016.90 1017.06 1017.34 1017.50 1017.62 1017.82 1017.94 1018.02 1018.54 1019.14 1019.74 1019.98 1019.30 1019.14 1019.02 1018.98 1018.90 1018.90 1018.98 1019.26 1019.82 1019.98 1019.82 1019.62 1019.42 1019.26 1019.14 1018.98 1018.86 1018.78 1018.82 1018.82 1018.74 1018.62 1018.58 1018.74 1018.86 1018.90
1016.74 1017.02 1017.50 1018.02 1018.14 1017.62 1017.46 1017.62 1017.70 1017.86 1018.42 1018.98 1019.38 1019.62 1019.58 1019.34 1019.54 1019.46 1019.30 1019.10 1018.94 1019.06 1019.26 1019.70 1020.06 1020.14 1020.02 1019.90 1019.74 1019.46 1019.18 1018.94 1018.82 1018.94 1019.06 1019.02 1018.90 1018.78 1018.78 1018.94 1018.86 1019.02
1016.62 1016.94 1017.30 1017.62 1017.90 1018.18 1018.14 1018.14 1018.22 1018.34 1018.50 1018.62 1019.06 1019.18 1019.22 1019.34 1019.50 1019.38 1019.18 1019.14 1019.26 1019.42 1019.66 1020.02 1020.26 1020.38 1020.22 1020.06 1019.90 1019.74 1019.34 1019.10 1019.02 1019.10 1019.10 1019.14 1019.18 1019.18 1019.18 1019.06 1019.14 1019.14
1016.62 1016.94 1017.46 1017.98 1018.14 1018.06 1018.10 1018.26 1018.42 1018.50 1018.70 1018.66 1019.10 1019.46 1019.54 1019.46 1019.46 1019.58 1019.54 1019.50 1019.62 1019.78 1019.90 1020.18 1020.38 1020.46 1020.38 1020.26 1020.14 1019.94 1019.66 1019.42 1019.30 1019.30 1019.42 1019.46 1019.42 1019.30 1019.30 1019.30 1019.34 1019.42
1016.78 1017.02 1017.54 1017.86 1018.10 1018.22 1018.22 1018.38 1018.54 1018.78 1018.90 1018.82 1019.14 1019.38 1019.62 1019.58 1019.58 1019.62 1019.70 1019.70 1019.74 1019.86 1019.94 1020.22 1020.38 1020.42 1020.42 1020.38 1020.26 1020.10 1019.86 1019.66 1019.50 1019.50 1019.70 1019.70 1019.62 1019.62 1019.34 1019.50 1019.58 1019.70
1017.02 1017.30 1017.58 1017.82 1017.98 1018.18 1018.30 1018.46 1018.58 1018.78 1018.98 1018.98 1018.94 1019.06 1019.42 1019.54 1019.58 1019.66 1019.86 1019.98 1019.98 1020.10 1020.22 1020.30 1020.42 1020.46 1020.50 1020.54 1020.46 1020.18 1020.02 1019.82 1019.54 1019.62 1019.86 1019.74 1019.66 1019.74 1019.98 1019.82 1019.70 1019.86
Wind_Speed
6 4 5 5 5 4 6 6 6 5 5 5 6 5 4 3 3 4 5 5 5 4 3 2 3 2 3 3 3 4 2 2 1 2 3 2 2 3 3 2 2 3
8 6 4 4 3 4 3 4 6 5 4 3 3 4 3 3 4 4 4 4 5 4 4 4 3 3 3 3 3 3 2 2 4 3 1 2 2 3 4 3 3 1
7 7 7 6 6 7 6 5 3 4 5 4 3 4 4 5 5 4 3 4 4 5 4 4 4 3 3 2 3 2 3 2 3 1 3 3 3 3 3 5 3 2
7 7 8 8 7 7 5 4 4 4 5 4 5 6 6 6 5 6 4 5 4 3 5 4 4 5 4 3 3 3 2 1 3 3 2 3 3 3 3 3 3 4
9 7 6 6 4 5 4 5 7 6 6 6 6 5 4 3 5 6 5 4 3 4 4 4 4 4 4 3 3 3 4 4 3 3 3 3 2 3 4 3 2 3
8 6 5 4 5 5 7 7 7 7 6 6 7 6 6 6 5 6 7 7 7 6 6 6 6 5 5 4 3 4 4 4 3 4 3 3 4 3 4 1 3 3
10 9 9 7 9 7 6 7 7 7 7 7 4 6 6 7 6 5 6 6 7 6 7 5 4 5 4 4 4 4 4 2 2 3 3 3 3 4 4 2 3 3
10 10 9 9 9 8 9 8 8 6 7 5 8 5 5 9 7 8 6 6 7 6 4 6 6 4 7 4 5 4 5 6 5 4 5 4 3 3 3 4 2 3
9 9 9 9 10 9 10 9 7 8 7 8 8 9 6 5 7 8 6 6 6 3 5 3 2 5 4 3 4 5 5 6 5 5 5 4 4 4 4 3 4 3
9 8 10 10 10 9 10 9 8 7 7 9 10 7 9 7 7 6 6 5 4 3 5 5 5 5 5 6 6 5 5 4 2 3 2 4 4 4 4 4 4 3
11 10 10 10 10 9 10 10 9 8 5 7 6 7 4 7 4 5 5 5 7 7 6 6 7 6 5 6 5 5 5 5 4 4 5 4 4 3 4 2 3 3
6 9 10 10 10 10 10 10 9 7 8 7 7 5 6 8 6 6 5 5 6 5 5 5 5 5 5 5 6 6 5 5 4 5 5 4 4 5 4 4 4 4
7 9 8 9 9 9 9 8 8 10 9 7 7 7 8 7 8 6 5 7 6 6 7 6 6 6 4 4 4 3 4 5 6 4 4 4 5 6 6 6 6 6
7 6 6 5 5 5 6 7 9 8 7 9 7 5 6 9 10 6 4 7 5 6 5 4 3 4 5 4 4 4 5 5 4 5 5 5 5 4 5 5 5 6
6 5 4 4 3 4 6 5 3 6 5 5 7 7 9 9 8 11 10 5 4 2 4 4 5 5 5 4 2 3 3 5 4 6 6 4 4 6 5 4 5 6
6 4 4 3 3 3 1 3 3 3 4 6 5 6 5 4 5 4 6 8 7 6 6 7 6 6 8 9 9 5 5 5 5 2 2 3 4 3 6 6 8 7
5 4 4 3 2 2 2 3 2 2 4 2 1 3 4 2 2 4 6 6 9 10 9 7 6 3 5 16 15 13 7 5 4 3 3 3 2 3 3 5 6 7
1 4 4 3 4 4 3 3 3 3 3 3 2 4 2 3 4 4 4 5 5 5 9 3 7 10 13 13 6 4 3 1 4 3 3 3 4 5 4 5 5 6
4 5 4 4 4 3 3 3 3 3 3 3 4 3 3 2 3 4 4 3 4 6 9 11 7 12 12 12 11 11 10 7 3 3 4 5 5 5 4 4 5 5
4 6 3 4 3 3 1 2 2 2 4 2 2 2 2 5 6 7 7 7 7 6 6 8 8 9 9 9 9 9 9 7 3 4 3 4 4 6 8 7 5 3
6 3 8 4 2 2 3 2 3 2 5 2 4 7 8 5 5 3 5 6 6 5 6 6 6 9 9 9 8 7 7 3 2 4 4 5 5 5 3 5 7 5
4 3 0 5 6 5 3 2 2 2 4 7 6 4 2 5 2 3 3 3 3 3 5 6 5 10 10 10 10 10 6 2 2 2 3 4 4 5 4 4 4 5
2 2 2 1 2 3 2 3 3 4 3 3 4 3 1 4 2 2 1 2 5 5 5 6 5 8 10 10 10 12 8 2 2 2 3 4 4 5 4 4 5 5
3 3 6 4 2 3 2 1 2 4 4 4 4 3 4 5 5 5 5 5 6 6 6 5 4 6 9 9 9 11 8 4 3 3 3 3 3 2 2 3 5 10
6 7 6 4 1 3 2 3 4 3 2 3 4 4 3 3 4 4 3 4 5 7 9 6 5 5 8 8 9 9 7 4 4 3 2 2 2 1 2 2 1 7
6 6 6 5 5 5 4 5 4 4 4 5 6 6 5 5 4 4 5 4 4 5 5 4 4 4 6 7 7 9 9 4 4 3 2 2 1 1 2 0 0 4
Wind_Direction
159 192 165 171 160 175 153 176 165 180 210 167 182 193 181 183 216 162 163 164 189 181 168 174 169 186 204 170 168 167 192 114 285 226 263 294 279 277 279 336 323 254
181 167 165 169 108 131 148 186 168 195 169 162 182 168 177 184 197 167 164 166 178 191 171 181 176 200 214 182 170 198 169 193 214 227 189 262 251 281 300 277 274 10
171 176 179 168 175 173 180 190 186 186 154 194 176 152 189 184 182 177 169 183 186 187 180 182 186 200 216 187 170 197 177 231 266 314 51 318 296 291 258 278 269 227
179 179 182 185 171 180 184 188 180 163 189 162 181 186 194 183 170 181 172 196 192 176 182 196 192 190 207 179 173 226 153 225 239 99 214 258 275 294 297 293 271 291
180 188 188 189 163 172 175 196 194 171 208 160 190 205 148 213 169 180 181 191 191 189 184 198 195 201 186 190 190 224 187 202 212 188 220 239 263 246 262 260 307 292
186 169 191 161 173 196 182 203 194 194 179 198 194 181 171 190 180 188 181 188 194 191 197 195 191 208 193 190 204 217 229 214 222 198 204 227 237 250 255 80 339 317
182 190 175 187 188 193 198 211 188 192 184 188 195 189 180 183 182 211 173 198 192 195 195 191 187 197 196 174 205 204 247 227 226 187 222 226 219 252 264 250 200 216
187 186 187 187 194 193 213 205 199 176 177 167 194 200 197 192 187 195 183 204 204 190 202 182 189 192 197 190 191 203 218 220 198 194 216 234 245 240 220 246 236 208
195 185 197 194 192 198 212 202 199 199 177 179 201 187 201 209 197 194 183 189 214 180 161 180 212 191 214 191 214 198 212 236 224 189 205 226 229 227 251 232 241 237
200 196 195 203 202 196 204 205 193 204 191 201 205 196 185 202 204 202 174 196 175 195 181 180 206 213 204 199 202 218 208 231 245 286 268 254 245 236 229 233 244 243
195 203 200 200 210 206 198 206 213 197 195 221 211 216 187 195 195 220 170 187 202 190 195 187 195 211 211 224 208 203 213 228 229 215 219 226 240 249 256 264 265 272
200 202 205 204 207 215 213 209 192 185 198 212 222 212 183 218 203 194 189 195 208 196 201 203 206 211 206 222 227 210 209 213 231 228 220 223 232 228 230 244 252 238
209 204 214 207 205 217 217 204 209 202 180 198 211 210 206 195 215 202 178 192 207 218 204 201 206 213 209 222 245 222 211 236 228 236 234 234 241 236 240 230 224 229
202 214 218 219 199 211 250 221 201 213 198 178 196 212 234 219 187 217 226 185 203 224 223 210 224 222 221 204 226 248 231 215 224 237 249 240 238 249 253 259 256 244
195 215 237 218 209 197 224 268 248 203 202 181 174 208 212 222 219 163 210 193 213 238 239 209 206 231 242 216 228 243 274 256 234 225 227 250 256 265 264 250 252 272
183 207 219 223 215 222 232 237 261 290 225 193 195 207 226 233 220 221 208 187 184 219 227 227 213 206 217 216 209 222 231 247 259 268 253 253 262 251 261 273 278 273
179 199 205 215 194 191 220 278 304 302 323 329 248 197 224 248 263 235 227 226 198 200 212 213 223 349 311 200 196 198 208 209 228 251 281 289 283 290 302 299 301 313
299 203 205 198 200 193 200 214 243 264 299 305 282 247 182 247 247 253 279 283 257 221 219 228 65 14 25 19 28 34 27 261 240 256 255 252 231 232 241 257 269 271
244 239 200 201 196 202 199 208 225 228 239 257 251 274 304 280 257 250 245 273 302 4 28 57 49 18 14 31 22 21 11 349 261 251 279 291 303 310 286 243 236 252
320 282 234 205 183 157 171 195 190 221 233 213 293 294 323 7 345 4 26 38 50 62 74 60 58 12 15 24 31 20 18 357 332 302 282 277 298 299 298 302 310 346
184 197 255 259 251 200 221 218 282 282 254 335 1 7 345 332 308 360 32 44 55 62 74 76 51 19 14 18 21 24 359 340 323 306 310 304 299 301 301 17 29 35
175 181 336 300 297 282 256 266 282 295 17 28 25 21 243 249 14 15 50 48 72 99 97 89 56 27 19 12 9 358 332 289 285 284 292 290 274 280 1 47 28 30
152 119 134 255 255 325 344 12 9 5 46 100 147 204 251 110 132 101 83 84 71 81 82 78 62 24 23 19 14 2 340 352 317 305 284 304 331 23 21 29 43 33
72 106 102 96 227 220 273 343 36 73 70 99 100 71 55 70 84 62 52 60 71 93 95 92 78 38 29 24 21 11 348 345 341 323 338 339 312 11 43 57 44 51
71 89 106 142 105 31 353 82 89 105 189 127 129 131 102 75 86 103 96 66 73 78 88 86 80 58 34 22 24 22 12 338 339 328 314 297 294 302 315 55 85 72
59 93 109 115 84 85 95 113 120 114 148 139 147 150 142 133 122 120 117 89 72 73 68 67 72 55 34 21 23 22 18 344 289 307 318 317 308 60 332 193 38 108